Hourly Weather Alikonovka

Today, 26 November, Thursday

Time Temperature Precipitation Wind Pressure Humidity
00:00 -4°C° 0 mm 2 mps 691 mmHg 71%
01:00 -4°C° 0 mm 2 mps 691 mmHg 69%
02:00 -4°C° 0 mm 2 mps 691 mmHg 67%
03:00 -4°C° 0 mm 2 mps 691 mmHg 66%
04:00 -3°C° 0 mm 2 mps 691 mmHg 69%
05:00 -3°C° 0 mm 2 mps 691 mmHg 71%
06:00 -3°C° 0 mm 2 mps 691 mmHg 74%
07:00 -2°C° 0 mm 2 mps 691 mmHg 74%
08:00 -2°C° 0 mm 2 mps 691 mmHg 73%
09:00 -1°C° 0 mm 2 mps 691 mmHg 73%
10:00 +1°C° 0 mm 2 mps 691 mmHg 74%
11:00 +1°C° 0 mm 2 mps 691 mmHg 74%
12:00 +2°C° 0 mm 2 mps 691 mmHg 75%
13:00 +2°C° 0 mm 2 mps 691 mmHg 80%
14:00 +1°C° 0 mm 2 mps 691 mmHg 85%
15:00 +1°C° 0 mm 2 mps 691 mmHg 90%
16:00 -1°C° 0.3 mm 2 mps 691 mmHg 92%
17:00 -1°C° 0.3 mm 2 mps 692 mmHg 94%
18:00 -2°C° 0.3 mm 2 mps 692 mmHg 97%
19:00 -2°C° 0.6 mm 2 mps 692 mmHg 96%
20:00 -2°C° 0.6 mm 2 mps 693 mmHg 95%
21:00 -2°C° 0.6 mm 2 mps 693 mmHg 95%
22:00 -3°C° 0.3 mm 2 mps 693 mmHg 94%
23:00 -2°C° 0.3 mm 1 mps 693 mmHg 93%

Tomorrow, 27 November, Friday

Time Temperature Precipitation Wind Pressure Humidity
00:00 -2°C° 0.3 mm 1 mps 693 mmHg 91%
01:00 -3°C° 0 mm 1 mps 693 mmHg 86%
02:00 -5°C° 0 mm 2 mps 693 mmHg 80%
03:00 -6°C° 0 mm 2 mps 693 mmHg 75%
04:00 -6°C° 0 mm 2 mps 693 mmHg 70%
05:00 -6°C° 0 mm 2 mps 693 mmHg 65%
06:00 -6°C° 0 mm 2 mps 693 mmHg 60%
07:00 -5°C° 0 mm 2 mps 694 mmHg 59%
08:00 -4°C° 0 mm 2 mps 694 mmHg 58%
09:00 -1°C° 0 mm 1 mps 694 mmHg 57%
10:00 +1°C° 0 mm 1 mps 694 mmHg 60%
11:00 +2°C° 0 mm 1 mps 694 mmHg 62%
12:00 +4°C° 0 mm 1 mps 694 mmHg 64%
13:00 +3°C° 0 mm 0 mps 694 mmHg 64%
14:00 +3°C° 0 mm 0 mps 694 mmHg 63%
15:00 +3°C° 0 mm 0 mps 694 mmHg 63%
16:00 +3°C° 0 mm 1 mps 694 mmHg 58%
17:00 +2°C° 0 mm 1 mps 694 mmHg 54%
18:00 -1°C° 0 mm 2 mps 694 mmHg 49%
19:00 -1°C° 0 mm 2 mps 694 mmHg 48%
20:00 -1°C° 0 mm 2 mps 694 mmHg 47%
21:00 -1°C° 0 mm 2 mps 694 mmHg 46%
22:00 -1°C° 0 mm 2 mps 694 mmHg 45%
23:00 -1°C° 0 mm 2 mps 693 mmHg 45%

Day after tomorrow, 28 November, Saturday

Time Temperature Precipitation Wind Pressure Humidity
00:00 -1°C° 0 mm 2 mps 693 mmHg 44%
01:00 -1°C° 0 mm 2 mps 693 mmHg 44%
02:00 -1°C° 0 mm 2 mps 693 mmHg 44%
03:00 -1°C° 0 mm 2 mps 693 mmHg 45%
04:00 -1°C° 0 mm 2 mps 693 mmHg 45%
05:00 -1°C° 0 mm 2 mps 693 mmHg 44%
06:00 -1°C° 0 mm 2 mps 693 mmHg 44%
07:00 +1°C° 0 mm 2 mps 693 mmHg 46%
08:00 +2°C° 0 mm 2 mps 693 mmHg 49%
09:00 +3°C° 0 mm 2 mps 693 mmHg 51%
10:00 +4°C° 0 mm 2 mps 693 mmHg 57%
11:00 +6°C° 0 mm 1 mps 692 mmHg 64%
12:00 +7°C° 0 mm 1 mps 692 mmHg 71%
13:00 +7°C° 0 mm 1 mps 692 mmHg 69%
14:00 +6°C° 0 mm 1 mps 692 mmHg 66%
15:00 +6°C° 0 mm 1 mps 691 mmHg 64%
16:00 +5°C° 0 mm 1 mps 691 mmHg 61%
17:00 +3°C° 0 mm 2 mps 692 mmHg 59%
18:00 +2°C° 0 mm 2 mps 692 mmHg 57%
19:00 +2°C° 0 mm 2 mps 692 mmHg 55%
20:00 +2°C° 0 mm 2 mps 692 mmHg 53%
21:00 +2°C° 0 mm 2 mps 692 mmHg 51%
22:00 +2°C° 0 mm 2 mps 692 mmHg 49%
23:00 +2°C° 0 mm 2 mps 692 mmHg 46%

29 November, Sunday

Time Temperature Precipitation Wind Pressure Humidity
00:00 +2°C° 0 mm 2 mps 692 mmHg 44%
01:00 +2°C° 0 mm 2 mps 692 mmHg 43%
02:00 +2°C° 0 mm 2 mps 692 mmHg 42%
03:00 +2°C° 0 mm 2 mps 692 mmHg 41%
04:00 +2°C° 0 mm 2 mps 692 mmHg 40%
05:00 +2°C° 0 mm 2 mps 692 mmHg 40%
06:00 +2°C° 0 mm 2 mps 692 mmHg 40%
07:00 +3°C° 0 mm 2 mps 692 mmHg 42%
08:00 +3°C° 0 mm 2 mps 693 mmHg 44%
09:00 +4°C° 0 mm 2 mps 693 mmHg 46%
10:00 +6°C° 0 mm 1 mps 693 mmHg 52%
11:00 +7°C° 0 mm 1 mps 693 mmHg 58%
12:00 +7°C° 0 mm 0 mps 693 mmHg 64%
13:00 +7°C° 0 mm 0 mps 692 mmHg 62%
14:00 +6°C° 0 mm 0 mps 692 mmHg 60%
15:00 +6°C° 0 mm 0 mps 692 mmHg 58%
16:00 +5°C° 0 mm 1 mps 692 mmHg 55%
17:00 +4°C° 0 mm 1 mps 692 mmHg 53%
18:00 +2°C° 0 mm 2 mps 692 mmHg 50%
19:00 +2°C° 0 mm 2 mps 692 mmHg 48%
20:00 +2°C° 0 mm 2 mps 692 mmHg 46%
21:00 +2°C° 0 mm 2 mps 692 mmHg 44%
22:00 +2°C° 0 mm 2 mps 692 mmHg 43%
23:00 +2°C° 0 mm 2 mps 692 mmHg 42%

30 November, Monday

Time Temperature Precipitation Wind Pressure Humidity
00:00 +2°C° 0 mm 2 mps 692 mmHg 41%
01:00 +2°C° 0 mm 2 mps 692 mmHg 41%
02:00 +1°C° 0 mm 2 mps 692 mmHg 41%
03:00 +1°C° 0 mm 2 mps 692 mmHg 41%
04:00 +1°C° 0 mm 2 mps 691 mmHg 41%
05:00 +1°C° 0 mm 2 mps 691 mmHg 42%
06:00 +1°C° 0 mm 2 mps 691 mmHg 42%
07:00 +1°C° 0 mm 2 mps 691 mmHg 45%
08:00 +2°C° 0 mm 2 mps 691 mmHg 48%
09:00 +2°C° 0 mm 2 mps 691 mmHg 51%
10:00 +3°C° 0 mm 2 mps 691 mmHg 60%
11:00 +4°C° 0 mm 2 mps 691 mmHg 68%
12:00 +3°C° 0 mm 3 mps 690 mmHg 77%
13:00 +3°C° 0 mm 3 mps 690 mmHg 79%
14:00 +3°C° 0 mm 3 mps 690 mmHg 81%
15:00 +2°C° 0 mm 3 mps 689 mmHg 83%
16:00 +1°C° 0 mm 3 mps 689 mmHg 82%
17:00 +1°C° 0 mm 3 mps 689 mmHg 80%
18:00 0°C° 0 mm 3 mps 690 mmHg 79%
19:00 0°C° 0 mm 3 mps 690 mmHg 79%
20:00 -1°C° 0 mm 4 mps 690 mmHg 78%
21:00 -1°C° 0 mm 4 mps 690 mmHg 78%
22:00 -1°C° 0 mm 4 mps 690 mmHg 77%
23:00 -1°C° 0 mm 4 mps 689 mmHg 77%

1 December, Tuesday

Time Temperature Precipitation Wind Pressure Humidity
00:00 -1°C° 0 mm 4 mps 689 mmHg 76%
01:00 -1°C° 0 mm 4 mps 689 mmHg 76%
02:00 0°C° 0 mm 3 mps 689 mmHg 75%
03:00 0°C° 0 mm 3 mps 689 mmHg 75%
04:00 0°C° 0 mm 3 mps 689 mmHg 74%
05:00 -1°C° 0 mm 3 mps 689 mmHg 74%
06:00 -1°C° 0 mm 3 mps 689 mmHg 73%
07:00 0°C° 0 mm 3 mps 689 mmHg 74%
08:00 0°C° 0 mm 3 mps 689 mmHg 74%
09:00 0°C° 0 mm 3 mps 689 mmHg 74%
10:00 +1°C° 0 mm 3 mps 689 mmHg 76%
11:00 +2°C° 0 mm 3 mps 689 mmHg 77%
12:00 +3°C° 0 mm 3 mps 689 mmHg 78%
13:00 +2°C° 0 mm 3 mps 689 mmHg 78%
14:00 +2°C° 0 mm 3 mps 689 mmHg 79%
15:00 +2°C° 0 mm 3 mps 689 mmHg 79%
16:00 +1°C° 0 mm 3 mps 689 mmHg 78%
17:00 +1°C° 0 mm 3 mps 689 mmHg 77%
18:00 0°C° 0 mm 3 mps 689 mmHg 76%
19:00 0°C° 0 mm 3 mps 689 mmHg 74%
20:00 0°C° 0 mm 3 mps 690 mmHg 72%
21:00 0°C° 0 mm 3 mps 690 mmHg 71%
22:00 -1°C° 0 mm 3 mps 690 mmHg 69%
23:00 -1°C° 0 mm 3 mps 690 mmHg 67%
Show more